| time (UTC) | temp F | wind direction | speed knots | gust knots | rain 1hr in | rain 24hr in | rain mn in | humidity % | barometer mb |
| 20260510190018 | 66 | 266 | 2.6 | 4.3 | 0.00 | 0.00 | 0.00 | 48 | 1016.9 |
| 20260510184523 | 67 | 67 | 1.7 | 6.1 | 0.00 | 0.00 | 0.00 | 55 | 1016.7 |
| 20260510183031 | 67 | 298 | 0.9 | 6.1 | 0.00 | 0.00 | 0.00 | 49 | 1016.9 |
| 20260510181546 | 67 | 295 | 2.6 | 9.6 | 0.00 | 0.00 | 0.00 | 50 | 1016.8 |
| 20260510180103 | 66 | 309 | 0.0 | 7.0 | 0.00 | 0.00 | 0.00 | 51 | 1016.4 |
| 20260510174558 | 65 | 37 | 0.9 | 6.1 | 0.00 | 0.00 | 0.00 | 53 | 1016.8 |
| 20260510173018 | 63 | 321 | 3.5 | 7.8 | 0.00 | 0.00 | 0.00 | 51 | 1016.6 |
| 20260510171527 | 62 | 111 | 1.7 | 7.8 | 0.00 | 0.00 | 0.00 | 53 | 1016.8 |
| 20260510170040 | 63 | 252 | 1.7 | 7.8 | 0.00 | 0.00 | 0.00 | 56 | 1017.0 |
| 20260510164557 | 62 | 262 | 1.7 | 8.7 | 0.00 | 0.00 | 0.00 | 60 | 1016.9 |
| 20260510163005 | 63 | 32 | 1.7 | 5.2 | 0.00 | 0.00 | 0.00 | 63 | 1016.8 |
| 20260510161519 | 62 | 45 | 1.7 | 6.1 | 0.00 | 0.00 | 0.00 | 65 | 1016.6 |
| 20260510160027 | 60 | 316 | 2.6 | 7.0 | 0.00 | 0.00 | 0.00 | 70 | 1016.6 |
| 20260510154534 | 60 | 52 | 2.6 | 6.1 | 0.00 | 0.00 | 0.00 | 69 | 1016.3 |
| 20260510153058 | 60 | 19 | 0.9 | 7.0 | 0.00 | 0.00 | 0.00 | 73 | 1016.2 |
| 20260510151506 | 60 | 95 | 2.6 | 7.0 | 0.00 | 0.00 | 0.00 | 73 | 1016.1 |
| 20260510150016 | 59 | 293 | 1.7 | 7.0 | 0.00 | 0.00 | 0.00 | 77 | 1015.8 |
| 20260510144536 | 58 | 17 | 0.9 | 5.2 | 0.00 | 0.00 | 0.00 | 79 | 1015.7 |
| 20260510143047 | 57 | 309 | 2.6 | 5.2 | 0.00 | 0.00 | 0.00 | 78 | 1015.7 |
| 20260510141503 | 57 | 359 | 0.0 | 7.0 | 0.00 | 0.00 | 0.00 | 79 | 1015.4 |
| 20260510140029 | 56 | 45 | 1.7 | 3.5 | 0.00 | 0.00 | 0.00 | 80 | 1015.5 |
| 20260510134532 | 57 | 95 | 0.9 | 6.1 | 0.00 | 0.02 | 0.00 | 82 | 1015.4 |
| 20260510133040 | 56 | 304 | 0.9 | 3.5 | 0.00 | 0.02 | 0.00 | 86 | 1014.8 |
| 20260510131552 | 55 | 289 | 0.0 | 4.3 | 0.00 | 0.02 | 0.00 | 87 | 1014.7 |
| 20260510130012 | 55 | 51 | 0.0 | 4.3 | 0.00 | 0.02 | 0.00 | 87 | 1014.5 |
| 20260510124531 | 55 | 311 | 0.9 | 4.3 | 0.00 | 0.03 | 0.00 | 88 | 1014.7 |
| 20260510123039 | 55 | 283 | 0.0 | 4.3 | 0.00 | 0.03 | 0.00 | 89 | 1014.5 |
| 20260510121546 | 55 | 290 | 0.0 | 0.0 | 0.00 | 0.03 | 0.00 | 90 | 1014.3 |
| 20260510120045 | 55 | 299 | 0.0 | 1.7 | 0.00 | 0.03 | 0.00 | 89 | 1014.1 |
| 20260510114543 | 55 | 323 | 0.0 | 1.7 | 0.00 | 0.09 | 0.00 | 89 | 1013.9 |
| 20260510113054 | 55 | 324 | 0.9 | 3.5 | 0.00 | 0.09 | 0.00 | 89 | 1013.7 |
| 20260510111557 | 55 | 290 | 0.9 | 3.5 | 0.00 | 0.09 | 0.00 | 88 | 1013.1 |
| 20260510110016 | 54 | 359 | 1.7 | 4.3 | 0.00 | 0.09 | 0.00 | 89 | 1012.8 |
| 20260510104525 | 54 | 340 | 0.0 | 2.6 | 0.00 | 0.11 | 0.00 | 90 | 1012.3 |
| 20260510103034 | 54 | 312 | 0.0 | 2.6 | 0.00 | 0.11 | 0.00 | 93 | 1012.0 |
| 20260510101551 | 52 | 286 | 0.0 | 0.9 | 0.00 | 0.11 | 0.00 | 95 | 1012.0 |
| 20260510100002 | 52 | 154 | 0.0 | 0.0 | 0.00 | 0.11 | 0.00 | 94 | 1011.5 |
| 20260510094518 | 53 | 154 | 0.0 | 0.0 | 0.00 | 0.14 | 0.00 | 94 | 1011.3 |
| 20260510093040 | 53 | 154 | 0.0 | 0.0 | 0.00 | 0.14 | 0.00 | 93 | 1011.0 |
| 20260510091534 | 54 | 153 | 0.0 | 0.0 | 0.00 | 0.14 | 0.00 | 92 | 1010.5 |
| 20260510090040 | 54 | 153 | 0.0 | 0.0 | 0.00 | 0.14 | 0.00 | 91 | 1010.5 |
| 20260510084549 | 55 | 153 | 0.0 | 0.0 | 0.00 | 0.18 | 0.00 | 90 | 1010.1 |
| 20260510083053 | 55 | 162 | 0.0 | 0.0 | 0.00 | 0.18 | 0.00 | 90 | 1010.0 |
| 20260510081625 | 55 | 151 | 0.0 | 0.0 | 0.00 | 0.18 | 0.00 | 90 | 1010.1 |
| 20260510080008 | 56 | 148 | 0.0 | 0.0 | 0.00 | 0.18 | 0.00 | 88 | 1010.0 |
| 20260510074523 | 57 | 148 | 0.0 | 0.0 | 0.00 | 0.19 | 0.00 | 86 | 1009.9 |
| 20260510073026 | 58 | 162 | 0.0 | 0.0 | 0.00 | 0.19 | 0.00 | 84 | 1009.7 |
| 20260510071530 | 59 | 165 | 0.0 | 1.7 | 0.00 | 0.19 | 0.00 | 82 | 1009.7 |
| 20260510070040 | 59 | 147 | 0.0 | 1.7 | 0.00 | 0.19 | 0.00 | 82 | 1009.8 |
| 20260510064556 | 60 | 191 | 0.0 | 1.7 | 0.00 | 0.19 | 0.00 | 81 | 1009.8 |
| 20260510063057 | 60 | 293 | 0.0 | 2.6 | 0.00 | 0.19 | 0.00 | 80 | 1010.0 |
| 20260510061509 | 60 | 243 | 0.0 | 1.7 | 0.00 | 0.19 | 0.00 | 81 | 1010.0 |
| 20260510054515 | 59 | 353 | 0.0 | 2.6 | 0.00 | 0.19 | 0.00 | 80 | 1009.7 |
| 20260510053038 | 60 | 163 | 0.9 | 2.6 | 0.00 | 0.19 | 0.00 | 79 | 1009.9 |
| 20260510051531 | 60 | 167 | 0.9 | 6.1 | 0.00 | 0.19 | 0.00 | 78 | 1009.7 |
| 20260510050046 | 60 | 162 | 0.9 | 3.5 | 0.00 | 0.19 | 0.00 | 77 | 1009.8 |
| 20260510044556 | 61 | 164 | 0.0 | 5.2 | 0.00 | 0.19 | 0.00 | 76 | 1009.6 |
| 20260510043102 | 61 | 168 | 1.7 | 4.3 | 0.00 | 0.19 | 0.00 | 75 | 1009.4 |
| 20260510041514 | 62 | 148 | 0.9 | 5.2 | 0.00 | 0.19 | 0.00 | 74 | 1009.3 |
| 20260510040038 | 62 | 150 | 1.7 | 5.2 | 0.00 | 0.19 | 0.00 | 73 | 1009.2 |
| 20260510034536 | 62 | 167 | 0.9 | 4.3 | 0.00 | 0.19 | 0.19 | 73 | 1009.2 |
| 20260510033057 | 62 | 148 | 1.7 | 5.2 | 0.00 | 0.19 | 0.19 | 73 | 1009.2 |
| 20260510031542 | 62 | 221 | 0.9 | 6.1 | 0.00 | 0.19 | 0.19 | 72 | 1009.0 |
| 20260510030051 | 62 | 149 | 0.0 | 3.5 | 0.00 | 0.19 | 0.19 | 72 | 1008.9 |
| 20260510024553 | 62 | 211 | 0.9 | 5.2 | 0.00 | 0.19 | 0.19 | 71 | 1008.9 |
| 20260510023010 | 62 | 188 | 0.0 | 1.7 | 0.00 | 0.19 | 0.19 | 71 | 1008.8 |
| 20260510021520 | 62 | 170 | 0.9 | 2.6 | 0.00 | 0.19 | 0.19 | 71 | 1008.6 |
| 20260510020040 | 63 | 169 | 0.0 | 1.7 | 0.00 | 0.19 | 0.19 | 70 | 1008.5 |
| 20260510014558 | 63 | 203 | 0.0 | 0.0 | 0.00 | 0.19 | 0.19 | 69 | 1008.2 |
| 20260510013059 | 64 | 160 | 0.9 | 3.5 | 0.00 | 0.19 | 0.19 | 67 | 1008.1 |
| 20260510011514 | 64 | 224 | 0.0 | 1.7 | 0.00 | 0.19 | 0.19 | 67 | 1008.0 |
| 20260510010025 | 65 | 143 | 0.0 | 1.7 | 0.00 | 0.19 | 0.19 | 65 | 1007.8 |
| 20260510004531 | 66 | 163 | 0.0 | 2.6 | 0.00 | 0.19 | 0.19 | 63 | 1007.7 |
| 20260510003025 | 67 | 205 | 0.0 | 4.3 | 0.00 | 0.19 | 0.19 | 62 | 1007.4 |
| 20260510001536 | 68 | 188 | 0.9 | 3.5 | 0.00 | 0.19 | 0.19 | 59 | 1007.2 |
| 20260510000055 | 69 | 232 | 0.9 | 3.5 | 0.00 | 0.19 | 0.19 | 58 | 1007.1 |
| 20260509234602 | 71 | 136 | 0.9 | 7.8 | 0.00 | 0.19 | 0.19 | 56 | 1006.9 |
| 20260509233011 | 71 | 222 | 2.6 | 13.9 | 0.00 | 0.19 | 0.19 | 55 | 1006.8 |
| 20260509231519 | 72 | 186 | 1.7 | 9.6 | 0.00 | 0.19 | 0.19 | 55 | 1006.7 |
| 20260509230028 | 72 | 197 | 1.7 | 8.7 | 0.00 | 0.19 | 0.19 | 55 | 1006.7 |
| 20260509224536 | 72 | 274 | 3.5 | 8.7 | 0.00 | 0.19 | 0.19 | 54 | 1006.7 |
| 20260509223058 | 73 | 182 | 0.9 | 9.6 | 0.00 | 0.19 | 0.19 | 56 | 1006.7 |
| 20260509221602 | 73 | 162 | 2.6 | 8.7 | 0.00 | 0.19 | 0.19 | 53 | 1006.8 |
| 20260509220018 | 73 | 266 | 3.5 | 12.2 | 0.00 | 0.19 | 0.19 | 54 | 1007.2 |
| 20260509214518 | 72 | 242 | 4.3 | 11.3 | 0.00 | 0.19 | 0.19 | 56 | 1007.1 |
| 20260509213028 | 72 | 188 | 3.5 | 10.4 | 0.00 | 0.19 | 0.19 | 54 | 1007.1 |
| 20260509211532 | 72 | 204 | 5.2 | 13.0 | 0.00 | 0.19 | 0.19 | 53 | 1007.1 |
| 20260509210051 | 72 | 278 | 3.5 | 8.7 | 0.00 | 0.19 | 0.19 | 56 | 1007.0 |
| 20260509204509 | 72 | 260 | 3.5 | 9.6 | 0.00 | 0.19 | 0.19 | 56 | 1007.2 |
| 20260509203025 | 72 | 146 | 1.7 | 8.7 | 0.00 | 0.19 | 0.19 | 56 | 1007.5 |
| 20260509201509 | 71 | 212 | 2.6 | 7.8 | 0.00 | 0.19 | 0.19 | 56 | 1007.6 |
| 20260509200012 | 71 | 238 | 1.7 | 7.0 | 0.00 | 0.19 | 0.19 | 60 | 1007.8 |
| 20260509194528 | 71 | 237 | 3.5 | 7.8 | 0.00 | 0.19 | 0.19 | 58 | 1008.1 |
| 20260509193036 | 70 | 137 | 3.5 | 9.6 | 0.00 | 0.19 | 0.19 | 61 | 1008.3 |
| 20260509191534 | 69 | 243 | 3.5 | 8.7 | 0.00 | 0.19 | 0.19 | 63 | 1008.4 |